This is the latest recevied weather packets stored in our database for station/object WX4ET. If no packets are shown the sender has not sent any weather packets the latest 10 day(s).
| Time | Temp. | Humidity | Pressure | Rain* | Wind** | Luminosity | Snow |
|---|---|---|---|---|---|---|---|
| 1777770952 | 11.11° C | 57% | 1010.9 hPa | 0 mm | - | 0 W/m² | - |
| 1777770650 | 11.11° C | 56% | 1010.9 hPa | 0 mm | - | 0 W/m² | - |
| 1777770346 | 11.67° C | 54% | 1010.8 hPa | 0 mm | - | 0 W/m² | - |
| 1777770044 | 11.67° C | 54% | 1010.8 hPa | 0 mm | - | 0 W/m² | - |
| 1777769740 | 11.67° C | 55% | 1010.7 hPa | 0 mm | - | 0 W/m² | - |
| 1777769438 | 11.67° C | 53% | 1010.7 hPa | 0 mm | - | 0 W/m² | - |
| 1777769134 | 12.22° C | 53% | 1010.8 hPa | 0 mm | - | 0 W/m² | - |
| 1777768832 | 12.22° C | 53% | 1010.5 hPa | 0 mm | - | 0 W/m² | - |
| 1777768528 | 12.22° C | 53% | 1010.7 hPa | 0 mm | - | 0 W/m² | - |
| 1777768226 | 12.22° C | 52% | 1010.4 hPa | 0 mm | - | 0 W/m² | - |
| 1777767923 | 12.22° C | 52% | 1010.4 hPa | 0 mm | - | 0 W/m² | - |
| 1777767619 | 12.78° C | 52% | 1010.3 hPa | 0 mm | - | 1 W/m² | - |
| 1777767316 | 12.78° C | 51% | 1010.4 hPa | 0 mm | - | 4 W/m² | - |
| 1777767013 | 12.78° C | 49% | 1010.1 hPa | 0 mm | - | 6 W/m² | - |
| 1777766711 | 13.33° C | 50% | 1010 hPa | 0 mm | - | 8 W/m² | - |
| 1777766407 | 13.33° C | 48% | 1010 hPa | 0 mm | - | 13 W/m² | - |
| 1777766104 | 13.33° C | 49% | 1010 hPa | 0 mm | - | 16 W/m² | - |
| 1777765802 | 13.89° C | 49% | 1009.8 hPa | 0 mm | - | 19 W/m² | - |
| 1777765498 | 13.89° C | 48% | 1009.9 hPa | 0 mm | - | 20 W/m² | - |
| 1777765195 | 13.89° C | 48% | 1009.9 hPa | 0 mm | - | 20 W/m² | - |
| 1777764890 | 13.89° C | 47% | 1009.9 hPa | 0 mm | - | 26 W/m² | - |
| 1777764587 | 13.33° C | 48% | 1009.9 hPa | 0 mm | - | 31 W/m² | - |
| 1777764284 | 13.33° C | 48% | 1009.7 hPa | 0 mm | - | 32 W/m² | - |
| 1777763981 | 13.89° C | 48% | 1009.6 hPa | 0 mm | - | 32 W/m² | - |
| 1777763678 | 13.89° C | 48% | 1009.7 hPa | 0 mm | - | 37 W/m² | - |
* Rain latest hour (hover to see other rain measurements)
** Current wind speed in m/s (hover to see current wind gust speed)